Regional Weather Roundup
Issued by NWS Green Bay, WI

Home | Current Version | Previous Version | Graphics & Text | Print | Product List | Glossary Off
Versions: 1 2 3 4 5 6 7 8 9 10 11 12 13 14 15 16 17 18 19 20 21 22 23 24 25 26 27 28 29 30 31 32 33 34 35 36 37 38 39 40 41 42 43 44 45 46 47 48 49 50

000
ASUS43 KGRB 162111
RWRGRB

NORTH-CENTRAL AND NORTHEAST WISCONSIN REGIONAL WEATHER ROUNDUP
NATIONAL WEATHER SERVICE GREEN BAY WI
300 PM CST THU NOV 16 2017

WIZ005-009-010>012-018-019-162200-
NORTH CENTRAL WISCONSIN

CITY           SKY/WX    TMP DP  RH WIND       PRES   REMARKS
IRONWOOD       CLOUDY    28  22  78 CALM      30.20F
MANITOWISH WTR CLOUDY    26  24  93 SE5       30.17F
ARBOR VITAE    CLOUDY    29  24  81 S5        30.17F
EAGLE RIVER    CLOUDY    27  20  75 E5        30.18S
LAND O LAKES   CLOUDY    26  21  84 CALM      30.20S
RHINELANDER    CLOUDY    28  22  78 E8        30.18F
PHILLIPS       CLOUDY    28  23  84 SE3       30.17F
ANTIGO         CLOUDY    29  22  74 CALM      30.19S
TOMAHAWK       CLOUDY    29  22  75 E3        30.18F
MERRILL        CLOUDY    31  23  72 E5        30.19F
$$

WIZ013-073-162200-
NORTHEAST WISCONSIN

CITY           SKY/WX    TMP DP  RH WIND       PRES   REMARKS
IRON MOUNTAIN  CLOUDY    29  18  63 CALM      30.21R
MARINETTE      CLOUDY    32  22  66 NE7       30.25R
OCONTO         CLOUDY    33  23  67 NE5       30.23S
$$

WIZ017-030-035>037-045-162200-
CENTRAL WISCONSIN

CITY           SKY/WX    TMP DP  RH WIND       PRES   REMARKS
MEDFORD        PTSUNNY   29  22  76 E7        30.17S
WAUSAU         CLOUDY    32  22  66 E6        30.19S
MOSINEE        PTSUNNY   32  23  69 N5        30.20S
MARSHFIELD     SUNNY     34  22  61 E7        30.17S
WISC RAPIDS    SUNNY     37  24  59 SE6       30.20S
STEVENS POINT  MOSUNNY   34  22  62 NE5       30.20S
WAUPACA        SUNNY     40  24  54 NE3       30.21S
SHAWANO        PTSUNNY   36  24  63 E7        30.22R
CLINTONVILLE   CLOUDY    37  23  56 NE6       30.22R
WAUTOMA        SUNNY     39  23  52 CALM      30.21S
$$

WIZ038-039-048-051-162200-
FOX VALLEY

CITY           SKY/WX    TMP DP  RH WIND       PRES   REMARKS
NWS GREEN BAY  SUNNY     36  25  64 NE7       30.22S
APPLETON       PTSUNNY   36  21  55 VRB6      30.20R
OSHKOSH        SUNNY     36  25  64 E7        30.21R
FOND DU LAC    SUNNY     37  23  56 NE8       30.21S
$$

WIZ022-050-052-162200-
EAST CENTRAL WISCONSIN

CITY           SKY/WX    TMP DP  RH WIND       PRES   REMARKS
EPHRAIM        CLOUDY    31  22  69 N9        30.22R
WASHINGTON ISL CLOUDY    31  22  68 N12       30.22S
STURGEON BAY   CLOUDY    32  23  69 N9        30.24R
MANITOWOC      CLOUDY    34  25  69 N8        30.23
SHEBOYGAN      PTSUNNY   36  26  67 NE6       30.22R
$$

LMZ563-521-522-541>543-162200-
LAKESHORE

STATION/POSITION TIME  TEMP    WIND        PRES    VSBY  WAVE
                       AIR SEA DIR/SP/G                  HT/PER
                 (UTC) (F)     (DEG/KT/KT) (MB)    (MI)  (FT/S)
SHEBOYGAN LKSHOR 2100   35      10/  8/  9 1024.2R
KEWAUNEE LKSHORE 2048   33      10/  6/ 10 1022.9R
NORTHPORT PIER   2040   34     350/ 16/ 22 1023.0F
N MID LAKE BUOY  2050   33 49  350/ 16/ 19 1024.0R         4/ 5
SISTER BAY LKSHO 2104   33      10/ 10/ 13   N/A
MENOMINEE LKSHOR 2048   32     330/ 13/ 15 1023.5R
$$




USA.gov is the U.S. government's official web portal to all federal, state and local government web resources and services.